COSMOS 1275 DEB, 42168

Orbit data source: Space-Track

COSMOS 1275 DEB, 42168 is space debris in LEO originally from a launch on Thu, 04 Jun 1981 UTC launched from the Plesetsk Missile And Space Complex (PKMTR). Debris objects in space refer to the collection of defunct objects orbiting the Earth. Examples of debris include non-operational satellites, rocket bodies, and fragments generated from explosions, collisions, or faulty payload assembly.

Not visible in the next 10 days
Identifier
42168, 1981-053SG
Orbit
LEO
Country
Flag of CISCIS
Related business
Manufacturer
Unknown
Mission
Spacecraft
Bus & Motor
Unknown
Mass
Unknown
Launch date (UTC)
1981-06-04 (44 years ago)
Launch vehicle
Unknown
Launch site
Plesetsk Missile And Space Complex (PKMTR)
Object type
Payload
Rocket body
Debris
Shape & HBR
Unknown
Radar Cross Section
Small (<0.1 m²)

Expand to show TLE details & history
Last TLE update: 1 year ago

TLE from 1 year ago
0 COSMOS 1275 DEB
1 42168U 81053SG  24244.18236854  .00069334  00000-0  11748-1 0  9998
2 42168  82.7880  45.7953 0008919 236.3536 123.6822 14.68857209567332
Epoch: 2024-08-31T04:22Z
TLE epoch observation values (Epoch: 2024-08-31T04:22:36.641Z)
Latitude
-0°
Longitude
0.29794°
Altitude
671.233 km
Speed
7.519 km/s
True Right ascension
03h 03m 10s
True Declination
0° 00' 00"
Sunlit
Object was in daylight at epoch
Visualization orbit readout
Latitude
Unknown
Longitude
Unknown
Altitude
Unknown
Speed
Unknown
Apparent Right ascension
Unknown
Apparent Declination
Unknown
Sunlit
N/A
Visualization observer readout
Local Sidereal Time
08:10:39
Azimuth
Unknown
Elevation
Unknown
Doppler factor
Unknown
Orbital elements
Apogee altitude
668.024 km
Perigee altitude
655.466 km
Semi-major axis
7,039.882 km
Eccentricity
0.00089
Inclination
82.788°
RAAN
45.7953°
Arg. of periapsis
236.3536°
True anomaly
123.76719°
Mean anomaly
123.6822°
Eccentric anomaly
123.7247°
Mean motion
3.67447 °/min
Orbital period
97.97 mins
BSTAR
0.011748
Loading maneuver chart data...
Computing Atmospheric mass density...
Loading historical data...
Loading historical data...
Loading historical data...
Loading historical data...
Loading historical data...
Loading historical data...
Loading historical data...

Documentation

Showing up to 5 results
|